Location: Antioch Baptist Church
(32.6696°N, 85.7327°W)
Time: 10:01:08
(UTC+00:00)

Cosmos-2242 - Pass Details

Date: 07 November 2020
Orbit: 592 x 616 km, 82.5° (Epoch: 26 November)

Event Time Altitude Azimuth Distance (km) Brightness Sun altitude
Rises 11:23:58 0° 346° (NNW) 2,888 6.2 -9.4°
Reaches altitude 10° 11:26:15 10° 340° (NNW) 1,980 5.3 -8.9°
Maximum altitude 11:30:26 46° 268° (W) 835 3.3 -8.0°
Drops below altitude 10° 11:34:36 10° 195° (SSW) 1,967 5.7 -7.2°
Sets 11:36:53 0° 189° (S) 2,867 6.6 -6.7°
